Time,TemperatureF,DewpointF,PressureIn,WindDirection,WindDirectionDegrees,WindSpeedMPH,WindSpeedGustMPH,Humidity,HourlyPrecipIn,Conditions,Clouds,dailyrainin,SoftwareType,DateUTC
2013-01-16 00:00:00,38.0,33.0,30.18,NE,44,11.0,17.0,84,-99.99,,,-99.99,,2013-01-16 05:00:00,
2013-01-16 00:23:00,38.0,33.0,30.18,NE,44,11.0,17.0,84,-99.99,,,-99.99,,2013-01-16 05:23:00,
2013-01-16 00:33:00,38.0,33.0,30.18,NE,44,11.0,17.0,84,-99.99,,,-99.99,,2013-01-16 05:33:00,
2013-01-16 00:42:00,38.0,33.0,30.18,NE,44,11.0,17.0,84,-99.99,,,-99.99,,2013-01-16 05:42:00,
2013-01-16 00:53:00,38.0,33.0,30.18,NE,44,11.0,17.0,84,-99.99,,,-99.99,,2013-01-16 05:53:00,
2013-01-16 01:00:00,38.0,34.0,30.15,NE,36,14.0,19.0,88,-99.99,,,-99.99,,2013-01-16 06:00:00,
2013-01-16 01:22:00,38.0,34.0,30.15,NE,36,14.0,19.0,88,-99.99,,,-99.99,,2013-01-16 06:22:00,
2013-01-16 01:33:00,38.0,34.0,30.15,NE,36,14.0,19.0,88,-99.99,,,-99.99,,2013-01-16 06:33:00,
2013-01-16 01:43:00,38.0,34.0,30.15,NE,36,14.0,19.0,88,-99.99,,,-99.99,,2013-01-16 06:43:00,
2013-01-16 01:53:00,38.0,34.0,30.15,NE,36,14.0,19.0,88,-99.99,,,-99.99,,2013-01-16 06:53:00,
2013-01-16 02:00:00,37.0,35.0,30.15,NNE,30,18.0,22.0,90,-99.99,,,-99.99,,2013-01-16 07:00:00,
2013-01-16 02:22:00,37.0,35.0,30.15,NNE,30,18.0,22.0,90,-99.99,,,-99.99,,2013-01-16 07:22:00,
2013-01-16 02:33:00,37.0,35.0,30.15,NNE,30,18.0,22.0,90,-99.99,,,-99.99,,2013-01-16 07:33:00,
2013-01-16 02:42:00,37.0,35.0,30.15,NNE,30,18.0,22.0,90,-99.99,,,-99.99,,2013-01-16 07:42:00,
2013-01-16 02:52:00,37.0,35.0,30.15,NNE,30,18.0,22.0,90,-99.99,,,-99.99,,2013-01-16 07:52:00,
2013-01-16 03:00:00,37.0,35.0,30.09,NE,38,24.0,26.0,93,-99.99,,,-99.99,,2013-01-16 08:00:00,
2013-01-16 03:23:00,37.0,35.0,30.09,NE,38,24.0,26.0,93,-99.99,,,-99.99,,2013-01-16 08:23:00,
2013-01-16 03:33:00,37.0,35.0,30.09,NE,38,24.0,26.0,93,-99.99,,,-99.99,,2013-01-16 08:33:00,
2013-01-16 03:42:00,37.0,35.0,30.09,NE,38,24.0,26.0,93,-99.99,,,-99.99,,2013-01-16 08:42:00,
2013-01-16 03:53:00,37.0,35.0,30.09,NE,38,24.0,26.0,93,-99.99,,,-99.99,,2013-01-16 08:53:00,
2013-01-16 04:00:00,37.0,35.0,30.06,NE,36,18.0,26.0,93,-99.99,,,-99.99,,2013-01-16 09:00:00,
2013-01-16 04:22:00,37.0,35.0,30.06,NE,36,18.0,26.0,93,-99.99,,,-99.99,,2013-01-16 09:22:00,
2013-01-16 04:33:00,37.0,35.0,30.06,NE,36,18.0,26.0,93,-99.99,,,-99.99,,2013-01-16 09:33:00,
2013-01-16 04:43:00,37.0,35.0,30.06,NE,36,18.0,26.0,93,-99.99,,,-99.99,,2013-01-16 09:43:00,
2013-01-16 04:53:00,37.0,35.0,30.06,NE,36,18.0,26.0,93,-99.99,,,-99.99,,2013-01-16 09:53:00,
2013-01-16 05:00:00,37.0,35.0,30.09,North,0,10.0,25.0,94,-99.99,,,-99.99,,2013-01-16 10:00:00,
2013-01-16 05:22:00,37.0,35.0,30.09,North,0,10.0,25.0,94,-99.99,,,-99.99,,2013-01-16 10:22:00,
2013-01-16 05:33:00,37.0,35.0,30.09,North,0,10.0,25.0,94,-99.99,,,-99.99,,2013-01-16 10:33:00,
2013-01-16 05:43:00,37.0,35.0,30.09,North,0,10.0,25.0,94,-99.99,,,-99.99,,2013-01-16 10:43:00,
2013-01-16 05:53:00,37.0,35.0,30.09,North,0,10.0,25.0,94,-99.99,,,-99.99,,2013-01-16 10:53:00,
2013-01-16 06:00:00,37.0,36.0,30.03,NE,36,16.0,23.0,94,-99.99,,,-99.99,,2013-01-16 11:00:00,
2013-01-16 06:23:00,37.0,36.0,30.03,NE,36,16.0,23.0,94,-99.99,,,-99.99,,2013-01-16 11:23:00,
2013-01-16 06:33:00,37.0,36.0,30.03,NE,36,16.0,23.0,94,-99.99,,,-99.99,,2013-01-16 11:33:00,
2013-01-16 06:43:00,37.0,36.0,30.03,NE,36,16.0,23.0,94,-99.99,,,-99.99,,2013-01-16 11:43:00,
2013-01-16 06:53:00,37.0,36.0,30.03,NE,36,16.0,23.0,94,-99.99,,,-99.99,,2013-01-16 11:53:00,
2013-01-16 07:00:00,38.0,37.0,30.03,NE,35,10.0,22.0,96,-99.99,,,-99.99,,2013-01-16 12:00:00,
2013-01-16 07:22:00,38.0,37.0,30.03,NE,35,10.0,22.0,96,-99.99,,,-99.99,,2013-01-16 12:22:00,
2013-01-16 07:33:00,38.0,37.0,30.03,NE,35,10.0,22.0,96,-99.99,,,-99.99,,2013-01-16 12:33:00,
2013-01-16 07:43:00,38.0,37.0,30.03,NE,35,10.0,22.0,96,-99.99,,,-99.99,,2013-01-16 12:43:00,
2013-01-16 07:53:00,38.0,37.0,30.03,NE,35,10.0,22.0,96,-99.99,,,-99.99,,2013-01-16 12:53:00,
2013-01-16 08:00:00,39.0,38.0,30.00,NE,43,15.0,20.0,96,-99.99,,,-99.99,,2013-01-16 13:00:00,
2013-01-16 08:23:00,39.0,38.0,30.00,NE,43,15.0,20.0,96,-99.99,,,-99.99,,2013-01-16 13:23:00,
2013-01-16 08:33:00,39.0,38.0,30.00,NE,43,15.0,20.0,96,-99.99,,,-99.99,,2013-01-16 13:33:00,
2013-01-16 08:43:00,39.0,38.0,30.00,NE,43,15.0,20.0,96,-99.99,,,-99.99,,2013-01-16 13:43:00,
2013-01-16 08:53:00,39.0,38.0,30.00,NE,43,15.0,20.0,96,-99.99,,,-99.99,,2013-01-16 13:53:00,
2013-01-16 09:00:00,40.0,39.0,29.97,NE,42,15.0,18.0,96,-99.99,,,-99.99,,2013-01-16 14:00:00,
2013-01-16 09:23:00,40.0,39.0,29.97,NE,42,15.0,18.0,96,-99.99,,,-99.99,,2013-01-16 14:23:00,
2013-01-16 09:33:00,40.0,39.0,29.97,NE,42,15.0,18.0,96,-99.99,,,-99.99,,2013-01-16 14:33:00,
2013-01-16 09:43:00,40.0,39.0,29.97,NE,42,15.0,18.0,96,-99.99,,,-99.99,,2013-01-16 14:43:00,
2013-01-16 09:53:00,40.0,39.0,29.97,NE,42,15.0,18.0,96,-99.99,,,-99.99,,2013-01-16 14:53:00,
2013-01-16 10:00:00,42.0,40.0,29.94,East,95,10.0,17.0,94,-99.99,,,-99.99,,2013-01-16 15:00:00,
2013-01-16 10:23:00,42.0,40.0,29.94,East,95,10.0,17.0,94,-99.99,,,-99.99,,2013-01-16 15:23:00,
2013-01-16 10:33:00,42.0,40.0,29.94,East,95,10.0,17.0,94,-99.99,,,-99.99,,2013-01-16 15:33:00,
2013-01-16 10:43:00,42.0,40.0,29.94,East,95,10.0,17.0,94,-99.99,,,-99.99,,2013-01-16 15:43:00,
2013-01-16 10:53:00,42.0,40.0,29.94,East,95,10.0,17.0,94,-99.99,,,-99.99,,2013-01-16 15:53:00,
2013-01-16 11:00:00,42.0,40.0,29.97,NE,35,3.0,16.0,94,-99.99,,,-99.99,,2013-01-16 16:00:00,
2013-01-16 11:23:00,42.0,40.0,29.97,NE,35,3.0,16.0,94,-99.99,,,-99.99,,2013-01-16 16:23:00,
2013-01-16 11:33:00,42.0,40.0,29.97,NE,35,3.0,16.0,94,-99.99,,,-99.99,,2013-01-16 16:33:00,
2013-01-16 11:43:00,42.0,40.0,29.97,NE,35,3.0,16.0,94,-99.99,,,-99.99,,2013-01-16 16:43:00,
2013-01-16 11:53:00,42.0,40.0,29.97,NE,35,3.0,16.0,94,-99.99,,,-99.99,,2013-01-16 16:53:00,
2013-01-16 12:00:00,42.0,41.0,29.88,NNW,334,0.0,4.0,94,-99.99,,,-99.99,,2013-01-16 17:00:00,
2013-01-16 12:23:00,42.0,41.0,29.88,NNW,334,0.0,4.0,94,-99.99,,,-99.99,,2013-01-16 17:23:00,
2013-01-16 12:33:00,42.0,41.0,29.88,NNW,334,0.0,4.0,94,-99.99,,,-99.99,,2013-01-16 17:33:00,
2013-01-16 12:44:00,42.0,41.0,29.88,NNW,334,0.0,4.0,94,-99.99,,,-99.99,,2013-01-16 17:44:00,
2013-01-16 12:53:00,42.0,41.0,29.88,NNW,334,0.0,4.0,94,-99.99,,,-99.99,,2013-01-16 17:53:00,
2013-01-16 13:00:00,40.0,39.0,29.85,WNW,303,4.0,10.0,95,-99.99,,,-99.99,,2013-01-16 18:00:00,
2013-01-16 13:33:00,40.0,39.0,29.85,WNW,303,4.0,10.0,95,-99.99,,,-99.99,,2013-01-16 18:33:00,
2013-01-16 13:43:00,40.0,39.0,29.85,WNW,303,4.0,10.0,95,-99.99,,,-99.99,,2013-01-16 18:43:00,
2013-01-16 13:53:00,40.0,39.0,29.85,WNW,303,4.0,10.0,95,-99.99,,,-99.99,,2013-01-16 18:53:00,
2013-01-16 14:00:00,42.0,41.0,29.77,SE,141,15.0,15.0,97,-99.99,,,-99.99,,2013-01-16 19:00:00,
2013-01-16 14:23:00,42.0,41.0,29.77,SE,141,15.0,15.0,97,-99.99,,,-99.99,,2013-01-16 19:23:00,
2013-01-16 14:33:00,42.0,41.0,29.77,SE,141,15.0,15.0,97,-99.99,,,-99.99,,2013-01-16 19:33:00,
2013-01-16 14:43:00,42.0,41.0,29.77,SE,141,15.0,15.0,97,-99.99,,,-99.99,,2013-01-16 19:43:00,
2013-01-16 14:53:00,42.0,41.0,29.77,SE,141,15.0,15.0,97,-99.99,,,-99.99,,2013-01-16 19:53:00,
2013-01-16 15:00:00,39.0,38.0,29.91,WNW,290,11.0,25.0,97,-99.99,,,-99.99,,2013-01-16 20:00:00,
2013-01-16 15:23:00,39.0,38.0,29.91,WNW,290,11.0,25.0,97,-99.99,,,-99.99,,2013-01-16 20:23:00,
2013-01-16 15:33:00,39.0,38.0,29.91,WNW,290,11.0,25.0,97,-99.99,,,-99.99,,2013-01-16 20:33:00,
2013-01-16 15:43:00,39.0,38.0,29.91,WNW,290,11.0,25.0,97,-99.99,,,-99.99,,2013-01-16 20:43:00,
2013-01-16 15:53:00,39.0,38.0,29.91,WNW,290,11.0,25.0,97,-99.99,,,-99.99,,2013-01-16 20:53:00,
2013-01-16 16:00:00,36.0,35.0,29.88,WNW,292,9.0,23.0,96,-99.99,,,-99.99,,2013-01-16 21:00:00,
2013-01-16 16:23:00,36.0,35.0,29.88,WNW,292,9.0,23.0,96,-99.99,,,-99.99,,2013-01-16 21:23:00,
2013-01-16 16:33:00,36.0,35.0,29.88,WNW,292,9.0,23.0,96,-99.99,,,-99.99,,2013-01-16 21:33:00,
2013-01-16 16:43:00,36.0,35.0,29.88,WNW,292,9.0,23.0,96,-99.99,,,-99.99,,2013-01-16 21:43:00,
2013-01-16 16:53:00,36.0,35.0,29.88,WNW,292,9.0,23.0,96,-99.99,,,-99.99,,2013-01-16 21:53:00,
2013-01-16 17:00:00,36.0,35.0,29.88,WSW,250,6.0,13.0,96,-99.99,,,-99.99,,2013-01-16 22:00:00,
2013-01-16 17:23:00,36.0,35.0,29.88,WSW,250,6.0,13.0,96,-99.99,,,-99.99,,2013-01-16 22:23:00,
2013-01-16 17:33:00,36.0,35.0,29.88,WSW,250,6.0,13.0,96,-99.99,,,-99.99,,2013-01-16 22:33:00,
2013-01-16 17:43:00,36.0,35.0,29.88,WSW,250,6.0,13.0,96,-99.99,,,-99.99,,2013-01-16 22:43:00,
2013-01-16 17:53:00,36.0,35.0,29.88,WSW,250,6.0,13.0,96,-99.99,,,-99.99,,2013-01-16 22:53:00,
2013-01-16 18:00:00,36.0,35.0,29.91,West,276,5.0,9.0,96,-99.99,,,-99.99,,2013-01-16 23:00:00,
2013-01-16 18:23:00,36.0,35.0,29.91,West,276,5.0,9.0,96,-99.99,,,-99.99,,2013-01-16 23:23:00,
2013-01-16 18:33:00,36.0,35.0,29.91,West,276,5.0,9.0,96,-99.99,,,-99.99,,2013-01-16 23:33:00,
2013-01-16 18:43:00,36.0,35.0,29.91,West,276,5.0,9.0,96,-99.99,,,-99.99,,2013-01-16 23:43:00,
2013-01-16 18:53:00,36.0,35.0,29.91,West,276,5.0,9.0,96,-99.99,,,-99.99,,2013-01-16 23:53:00,
2013-01-16 19:00:00,37.0,35.0,29.91,WSW,255,6.0,12.0,95,-99.99,,,-99.99,,2013-01-17 00:00:00,
2013-01-16 19:22:00,37.0,35.0,29.91,WSW,255,6.0,12.0,95,-99.99,,,-99.99,,2013-01-17 00:22:00,
2013-01-16 19:33:00,37.0,35.0,29.91,WSW,255,6.0,12.0,95,-99.99,,,-99.99,,2013-01-17 00:33:00,
2013-01-16 19:42:00,37.0,35.0,29.91,WSW,255,6.0,12.0,95,-99.99,,,-99.99,,2013-01-17 00:42:00,
2013-01-16 19:53:00,37.0,35.0,29.91,WSW,255,6.0,12.0,95,-99.99,,,-99.99,,2013-01-17 00:53:00,
2013-01-16 20:00:00,37.0,36.0,29.91,WSW,239,12.0,12.0,95,-99.99,,,-99.99,,2013-01-17 01:00:00,
2013-01-16 20:22:00,37.0,36.0,29.91,WSW,239,12.0,12.0,95,-99.99,,,-99.99,,2013-01-17 01:22:00,
2013-01-16 20:33:00,37.0,36.0,29.91,WSW,239,12.0,12.0,95,-99.99,,,-99.99,,2013-01-17 01:33:00,
2013-01-16 20:43:00,37.0,36.0,29.91,WSW,239,12.0,12.0,95,-99.99,,,-99.99,,2013-01-17 01:43:00,
2013-01-16 20:53:00,37.0,36.0,29.91,WSW,239,12.0,12.0,95,-99.99,,,-99.99,,2013-01-17 01:53:00,
2013-01-16 21:00:00,38.0,36.0,29.91,West,268,8.0,13.0,94,-99.99,,,-99.99,,2013-01-17 02:00:00,
2013-01-16 21:22:00,38.0,36.0,29.91,West,268,8.0,13.0,94,-99.99,,,-99.99,,2013-01-17 02:22:00,
2013-01-16 21:32:00,38.0,36.0,29.91,West,268,8.0,13.0,94,-99.99,,,-99.99,,2013-01-17 02:32:00,
2013-01-16 21:43:00,38.0,36.0,29.91,West,268,8.0,13.0,94,-99.99,,,-99.99,,2013-01-17 02:43:00,
2013-01-16 21:52:00,38.0,36.0,29.91,West,268,8.0,13.0,94,-99.99,,,-99.99,,2013-01-17 02:52:00,
2013-01-16 22:00:00,38.0,36.0,29.91,West,264,10.0,16.0,93,-99.99,,,-99.99,,2013-01-17 03:00:00,
2013-01-16 22:22:00,38.0,36.0,29.91,West,264,10.0,16.0,93,-99.99,,,-99.99,,2013-01-17 03:22:00,
2013-01-16 22:33:00,38.0,36.0,29.91,West,264,10.0,16.0,93,-99.99,,,-99.99,,2013-01-17 03:33:00,
2013-01-16 22:43:00,38.0,36.0,29.91,West,264,10.0,16.0,93,-99.99,,,-99.99,,2013-01-17 03:43:00,
2013-01-16 22:53:00,38.0,36.0,29.91,West,264,10.0,16.0,93,-99.99,,,-99.99,,2013-01-17 03:53:00,
2013-01-16 23:23:00,38.0,36.0,29.91,West,276,10.0,15.0,92,-99.99,,,-99.99,,2013-01-17 04:23:00,
2013-01-16 23:33:00,38.0,36.0,29.91,West,276,10.0,15.0,92,-99.99,,,-99.99,,2013-01-17 04:33:00,
2013-01-16 23:43:00,38.0,36.0,29.91,West,276,10.0,15.0,92,-99.99,,,-99.99,,2013-01-17 04:43:00,
2013-01-16 23:53:00,38.0,36.0,29.91,West,276,10.0,15.0,92,-99.99,,,-99.99,,2013-01-17 04:53:00,